Volver al catálogo

CZ-4 DEB

ActivoPO
NORAD 35397·DEBRIS·🇨🇳 China

Lanzado Sep 19, 2007 desde Taiyuan Satellite Launch Center

Loading…

Próximos Pases (próximas 24 horas)

TLE

ActualizadoSource: Space-Track

Época: Sep 14, 2026, 13:04 UTC

1 35397U 07042E   26257.54495926  .00009831  00000-0  91960-3 0  9995
2 35397  98.6463  15.2306 0060854 148.0523 212.4407 14.92927431998501

Sigue CZ-4 DEB en tiempo real con AllMySat

Download on the App Store